Weather History for KJYG - February, 2014

Change the Weather History Date:

Tuesday, February 25, 2014

  Actual Average Record
Temperature  
Mean Temperature 2 °F -  
Max Temperature 10 °F 33 °F 55 °F (1976)
Min Temperature -5 °F 13 °F -12 °F (1967)
Degree Days  
Heating Degree Days 62    
Moisture  
Dew Point -5 °F    
Average Humidity 73    
Maximum Humidity 85    
Minimum Humidity 61    
Precipitation  
Precipitation 0.00 in - - ()
Sea Level Pressure  
Sea Level Pressure 30.36 in    
Wind  
Wind Speed 12 mph (WNW)    
Max Wind Speed 23 mph    
Max Gust Speed 30 mph    
Visibility 9 miles    
Events      
Averages and records for this station are not official NWS values.
T = Trace of Precipitation, MM = Missing Value Source: NWS Daily Summary

Daily Weather History Graph

Daily Weather History Graph

Search for Another Location

Airport or City:

Trip Planner

Search our weather history database for the weather conditions in past years. The results will help you decide how hot, cold, wet, or windy it might be!

Date:

Astronomy

Feb. 25, 2014 Rise Set
Actual Time 7:01 AM CST 6:01 PM CST
Civil Twilight 6:32 AM CST 6:30 PM CST
Nautical Twilight 5:59 AM CST 7:04 PM CST
Astronomical Twilight 5:25 AM CST 7:37 PM CST
Moon 4:03 AM CST (2/25) 2:02 PM CST (2/25)
Length of Visible Light 11h 57m
Length of Day
10h 59m
Waning Crescent, 18% of the Moon is Illuminated
Feb 25
Waning Crescent
Mar 1
New
Mar 8
First Quarter
Mar 16
Full
Mar 23
Last Quarter

Hourly Weather History & Observations

Time (CST) Temp. Windchill Dew Point Humidity Pressure Visibility Wind Dir Wind Speed Gust Speed Precip Events Conditions
12:15 AM 3.2 °F -12.2 °F -0.4 °F 85% 30.37 in 10.0 mi NW 10.4 mph - N/A   Mostly Cloudy
12:35 AM 3.2 °F -11.3 °F -0.4 °F 85% 30.37 in 10.0 mi NW 9.2 mph - N/A   Mostly Cloudy
12:55 AM 3.2 °F -12.2 °F -2.2 °F 78% 30.36 in 10.0 mi NW 10.4 mph - N/A   Scattered Clouds
1:15 AM 1.4 °F -14.5 °F -2.2 °F 85% 30.37 in 10.0 mi NW 10.4 mph - N/A   Clear
1:35 AM 1.4 °F -15.3 °F -2.2 °F 85% 30.37 in 10.0 mi NW 11.5 mph - N/A   Mostly Cloudy
1:54 AM 1.4 °F -14.5 °F -2.2 °F 85% 30.37 in 10.0 mi NW 10.4 mph - N/A   Mostly Cloudy
2:15 AM 1.4 °F -14.5 °F -2.2 °F 85% 30.37 in 10.0 mi WNW 10.4 mph - N/A   Mostly Cloudy
2:35 AM 1.4 °F -16.9 °F -4.0 °F 78% 30.37 in 10.0 mi NW 13.8 mph - N/A   Scattered Clouds
2:55 AM 1.4 °F -16.9 °F -5.8 °F 72% 30.36 in 10.0 mi WNW 13.8 mph - N/A   Clear
3:15 AM -0.4 °F -18.4 °F -5.8 °F 78% 30.36 in 10.0 mi WNW 12.7 mph - N/A   Clear
3:35 AM -0.4 °F -16.7 °F -5.8 °F 78% 30.37 in 10.0 mi WNW 10.4 mph - N/A   Clear
3:55 AM -0.4 °F -16.7 °F -7.6 °F 72% 30.35 in 10.0 mi NW 10.4 mph - N/A   Clear
4:15 AM -2.2 °F -18.0 °F -7.6 °F 78% 30.35 in 10.0 mi WNW 9.2 mph - N/A   Clear
4:35 AM -2.2 °F -18.9 °F -7.6 °F 78% 30.36 in 10.0 mi WNW 10.4 mph - N/A   Clear
4:55 AM -2.2 °F -16.8 °F -7.6 °F 78% 30.36 in 10.0 mi West 8.1 mph - N/A   Clear
5:15 AM -2.2 °F -16.8 °F -7.6 °F 78% 30.35 in 10.0 mi WNW 8.1 mph - N/A   Clear
5:35 AM -2.2 °F -15.6 °F -9.4 °F 71% 30.35 in 10.0 mi West 6.9 mph - N/A   Clear
5:55 AM -4.0 °F -17.8 °F -9.4 °F 78% 30.34 in 10.0 mi West 6.9 mph - N/A   Clear
6:15 AM -4.0 °F -19.0 °F -9.4 °F 78% 30.34 in 10.0 mi West 8.1 mph - N/A   Clear
6:35 AM -4.0 °F -19.0 °F -9.4 °F 78% 30.34 in 10.0 mi West 8.1 mph - N/A   Clear
6:55 AM -5.8 °F -21.2 °F -9.4 °F 84% 30.34 in 10.0 mi West 8.1 mph - N/A   Clear
7:15 AM -5.8 °F -21.2 °F -11.2 °F 77% 30.34 in 10.0 mi West 8.1 mph - N/A   Clear
7:35 AM -4.0 °F -19.0 °F -9.4 °F 78% 30.34 in 10.0 mi West 8.1 mph - N/A   Clear
7:55 AM -2.2 °F -18.0 °F -9.4 °F 71% 30.34 in 10.0 mi West 9.2 mph - N/A   Clear
8:15 AM -2.2 °F -19.9 °F -9.4 °F 71% 30.34 in 10.0 mi West 11.5 mph - N/A   Clear
8:35 AM -0.4 °F -17.6 °F -9.4 °F 66% 30.35 in 10.0 mi West 11.5 mph - N/A   Clear
8:55 AM -0.4 °F -18.4 °F -9.4 °F 66% 30.35 in 10.0 mi West 12.7 mph - N/A   Clear
9:15 AM 1.4 °F -13.5 °F -9.4 °F 61% 30.36 in 10.0 mi West 9.2 mph - N/A   Clear
9:35 AM 1.4 °F -13.5 °F -7.6 °F 66% 30.35 in 10.0 mi West 9.2 mph - N/A   Clear
9:55 AM 3.2 °F -12.2 °F -7.6 °F 61% 30.36 in 10.0 mi West 10.4 mph - N/A   Clear
10:15 AM 3.2 °F -11.3 °F -7.6 °F 61% 30.36 in 10.0 mi West 9.2 mph - N/A   Clear
10:35 AM 3.2 °F -12.2 °F -7.6 °F 61% 30.35 in 10.0 mi WSW 10.4 mph - N/A   Clear
10:54 AM 3.2 °F -13.9 °F -5.8 °F 66% 30.36 in 10.0 mi WSW 12.7 mph - N/A   Clear
11:15 AM 5.0 °F -12.3 °F -5.8 °F 61% 30.36 in 10.0 mi WSW 13.8 mph - N/A   Clear
11:35 AM 6.8 °F -10.0 °F -4.0 °F 61% 30.34 in 10.0 mi WSW 13.8 mph - N/A   Clear
11:55 AM 6.8 °F -11.3 °F -2.2 °F 67% 30.33 in 10.0 mi West 16.1 mph - N/A   Clear
12:15 PM 8.6 °F -9.5 °F -0.4 °F 67% 30.33 in 10.0 mi West 17.3 mph 21.9 mph N/A   Clear
12:35 PM 8.6 °F -10.0 °F -0.4 °F 67% 30.32 in 10.0 mi West 18.4 mph - N/A   Clear
12:55 PM 8.6 °F -9.5 °F -0.4 °F 67% 30.32 in 10.0 mi West 17.3 mph 21.9 mph N/A   Clear
1:15 PM 8.6 °F -10.0 °F -0.4 °F 67% 30.31 in 10.0 mi West 18.4 mph - N/A   Clear
1:35 PM 10.4 °F -7.7 °F 1.4 °F 67% 30.31 in 10.0 mi West 18.4 mph - N/A   Clear
1:55 PM 10.4 °F -8.2 °F 1.4 °F 67% 30.30 in 10.0 mi West 19.6 mph 24.2 mph N/A   Clear
2:15 PM 10.4 °F -9.5 °F -0.4 °F 62% 30.30 in 7.0 mi WNW 23.0 mph 28.8 mph N/A   Scattered Clouds
2:35 PM 10.4 °F -8.2 °F 1.4 °F 67% 30.30 in 10.0 mi WNW 19.6 mph 26.5 mph N/A   Scattered Clouds
2:55 PM 8.6 °F -11.9 °F -0.4 °F 67% 30.30 in 2.5 mi WNW 23.0 mph 28.8 mph N/A   Haze
3:15 PM 8.6 °F -11.9 °F -0.4 °F 67% 30.31 in 4.0 mi WNW 23.0 mph 28.8 mph N/A   Haze
3:35 PM 8.6 °F -11.4 °F -0.4 °F 67% 30.31 in 3.0 mi WNW 21.9 mph 27.6 mph N/A   Haze
3:55 PM 6.8 °F -13.4 °F -0.4 °F 72% 30.32 in 4.0 mi WNW 20.7 mph 28.8 mph N/A   Haze
4:15 PM 6.8 °F -14.3 °F -0.4 °F 72% 30.32 in 2.0 mi NW 23.0 mph 28.8 mph N/A   Haze
4:35 PM 6.8 °F -14.3 °F -0.4 °F 72% 30.32 in 2.0 mi WNW 23.0 mph 29.9 mph N/A   Haze
4:55 PM 3.2 °F -17.1 °F -2.2 °F 78% 30.34 in 4.0 mi NW 18.4 mph 26.5 mph N/A   Haze
5:14 PM 3.2 °F -16.5 °F -4.0 °F 72% 30.34 in 10.0 mi NW 17.3 mph - N/A   Clear
5:35 PM 3.2 °F -17.1 °F -4.0 °F 72% 30.34 in 10.0 mi NW 18.4 mph - N/A   Clear
5:55 PM 3.2 °F -17.1 °F -4.0 °F 72% 30.35 in 10.0 mi NW 18.4 mph 23.0 mph N/A   Clear
6:15 PM 1.4 °F -20.5 °F -5.8 °F 72% 30.36 in 10.0 mi NW 20.7 mph - N/A   Clear
6:35 PM 1.4 °F -18.8 °F -5.8 °F 72% 30.37 in 10.0 mi WNW 17.3 mph - N/A   Clear
6:55 PM 1.4 °F -17.6 °F -5.8 °F 72% 30.37 in 10.0 mi WNW 15.0 mph - N/A   Clear
7:15 PM 1.4 °F -18.8 °F -5.8 °F 72% 30.37 in 10.0 mi WNW 17.3 mph - N/A   Clear
7:35 PM 1.4 °F -19.4 °F -5.8 °F 72% 30.38 in 10.0 mi WNW 18.4 mph - N/A   Clear
7:55 PM 1.4 °F -19.4 °F -5.8 °F 72% 30.39 in 10.0 mi WNW 18.4 mph - N/A   Clear
8:15 PM -0.4 °F -22.3 °F -7.6 °F 72% 30.40 in 10.0 mi NW 19.6 mph - N/A   Clear
8:35 PM -0.4 °F -19.9 °F -7.6 °F 72% 30.40 in 10.0 mi WNW 15.0 mph - N/A   Clear
8:54 PM -0.4 °F -20.5 °F -7.6 °F 72% 30.40 in 10.0 mi WNW 16.1 mph - N/A   Clear
9:15 PM -0.4 °F -19.9 °F -7.6 °F 72% 30.40 in 10.0 mi WNW 15.0 mph - N/A   Clear
9:35 PM -2.2 °F -21.5 °F -7.6 °F 78% 30.41 in 10.0 mi WNW 13.8 mph - N/A   Clear
9:55 PM -2.2 °F -19.9 °F -7.6 °F 78% 30.41 in 10.0 mi WNW 11.5 mph - N/A   Clear
10:15 PM -2.2 °F -19.9 °F -9.4 °F 71% 30.41 in 10.0 mi WNW 11.5 mph - N/A   Clear
10:35 PM -4.0 °F -21.2 °F -9.4 °F 78% 30.41 in 10.0 mi WNW 10.4 mph - N/A   Clear
10:55 PM -4.0 °F -22.1 °F -9.4 °F 78% 30.41 in 10.0 mi WNW 11.5 mph - N/A   Clear
11:15 PM -4.0 °F -22.1 °F -9.4 °F 78% 30.40 in 10.0 mi WNW 11.5 mph - N/A   Clear
11:35 PM -4.0 °F -22.1 °F -9.4 °F 78% 30.40 in 10.0 mi WNW 11.5 mph - N/A   Clear
11:55 PM -5.8 °F -23.4 °F -9.4 °F 84% 30.40 in 10.0 mi WNW 10.4 mph - N/A   Clear